,,,PA_Meas_PMT16A,,PR_Meas_QMR101_102,,RH_Meas_QMH101,,SR_Meas_QMS101,,TA_Meas_QMH101,,GenWind,,GenWind,
date,time,status,PA,status,PR,status,RH,status,SR,status,TA,status,DirAvg,status,SpdAvg,
2012-01-30, 00:00:04,VALID,1005.15,VALID,0,VALID,94.3158,VALID,0,VALID,23.6257,VALID,10,VALID,0.235547,
2012-01-30, 00:01:04,VALID,1005.14,VALID,0,VALID,94.3235,VALID,0,VALID,23.6044,VALID,10,VALID,0.425,
2012-01-30, 00:02:04,VALID,1005.1,VALID,0,VALID,94.3311,VALID,0,VALID,23.6044,VALID,10,VALID,0.211328,
2012-01-30, 00:03:04,VALID,1005.1,VALID,0,VALID,94.3235,VALID,0,VALID,23.6044,VALID,10,VALID,0.328516,
2012-01-30, 00:04:04,VALID,1005.09,VALID,0,VALID,94.354,VALID,0,VALID,23.6452,VALID,10,VALID,0.0671875,
2012-01-30, 00:05:04,VALID,1005.1,VALID,0,VALID,94.3692,VALID,0,VALID,23.6239,VALID,10,VALID,0.145313,
2012-01-30, 00:06:04,VALID,1005.11,VALID,0,VALID,94.4227,VALID,0,VALID,23.6452,VALID,10,VALID,0,
2012-01-30, 00:07:04,VALID,1005.1,VALID,0,VALID,94.4227,VALID,0,VALID,23.6841,VALID,10,VALID,0.0601562,
2012-01-30, 00:08:04,VALID,1005.13,VALID,0,VALID,94.3692,VALID,0,VALID,23.6841,VALID,10,VALID,0.212109,
2012-01-30, 00:09:04,VALID,1005.11,VALID,0,VALID,94.2396,VALID,0,VALID,23.6646,VALID,10,VALID,0.475,
2012-01-30, 00:10:04,VALID,1005.1,VALID,0,VALID,94.2167,VALID,0,VALID,23.6239,VALID,10,VALID,0.408984,
2012-01-30, 00:11:04,VALID,1005.07,VALID,0,VALID,94.2548,VALID,0,VALID,23.6434,VALID,10,VALID,0.484766,
2012-01-30, 00:12:04,VALID,1005.04,VALID,0,VALID,94.2777,VALID,0,VALID,23.6434,VALID,10,VALID,0.298047,
2012-01-30, 00:13:04,VALID,1005.08,VALID,0,VALID,94.2777,VALID,0,VALID,23.6416,VALID,10,VALID,0.511719,
2012-01-30, 00:14:04,VALID,1005.03,VALID,0,VALID,94.2548,VALID,0,VALID,23.6239,VALID,10,VALID,0.597266,
2012-01-30, 00:15:04,VALID,1005,VALID,0,VALID,94.209,VALID,0,VALID,23.6239,VALID,10,VALID,0.6,
2012-01-30, 00:16:04,VALID,1005,VALID,0,VALID,94.2014,VALID,0,VALID,23.6239,VALID,10,VALID,0.518359,
2012-01-30, 00:17:04,VALID,1004.99,VALID,0,VALID,94.2777,VALID,0,VALID,23.6044,VALID,10,VALID,0.467969,
2012-01-30, 00:18:04,VALID,1004.99,VALID,0,VALID,94.293,VALID,0,VALID,23.6044,VALID,10,VALID,0.523828,
2012-01-30, 00:19:04,VALID,1004.97,VALID,0,VALID,94.3387,VALID,0,VALID,23.6239,VALID,10,VALID,0.475391,
2012-01-30, 00:20:04,VALID,1004.96,VALID,0,VALID,94.3616,VALID,0,VALID,23.6239,VALID,10,VALID,0.540625,
2012-01-30, 00:21:04,VALID,1004.93,VALID,0,VALID,94.3769,VALID,0,VALID,23.6452,VALID,10,VALID,0.480469,
2012-01-30, 00:22:04,VALID,1004.92,VALID,0,VALID,94.3464,VALID,0,VALID,23.6646,VALID,10,VALID,0.497266,
2012-01-30, 00:23:04,VALID,1004.86,VALID,0,VALID,94.3464,VALID,0,VALID,23.6434,VALID,10,VALID,0.31875,
2012-01-30, 00:24:04,VALID,1004.86,VALID,0,VALID,94.3464,VALID,0,VALID,23.6239,VALID,10,VALID,0.400391,
2012-01-30, 00:25:04,VALID,1004.83,VALID,0,VALID,94.3769,VALID,0,VALID,23.6628,VALID,10,VALID,0.535547,
2012-01-30, 00:26:04,VALID,1004.79,VALID,0,VALID,94.354,VALID,0,VALID,23.6841,VALID,10,VALID,0.499219,
2012-01-30, 00:27:04,VALID,1004.77,VALID,0,VALID,94.3616,VALID,0,VALID,23.6628,VALID,10,VALID,0.409375,
2012-01-30, 00:28:04,VALID,1004.76,VALID,0,VALID,94.3311,VALID,0,VALID,23.6628,VALID,10,VALID,0.438281,
2012-01-30, 00:29:04,VALID,1004.75,VALID,0,VALID,94.3235,VALID,0,VALID,23.6628,VALID,10,VALID,0.542578,
2012-01-30, 00:30:04,VALID,1004.72,VALID,0,VALID,94.3158,VALID,0,VALID,23.661,VALID,10,VALID,0.493359,
2012-01-30, 00:31:04,VALID,1004.68,VALID,0,VALID,94.3845,VALID,0,VALID,23.7212,VALID,10,VALID,0.585156,
2012-01-30, 00:32:04,VALID,1004.67,VALID,0,VALID,94.4684,VALID,0,VALID,23.7601,VALID,10,VALID,0.598828,
2012-01-30, 00:33:04,VALID,1004.67,VALID,0,VALID,94.4379,VALID,0,VALID,23.7601,VALID,10,VALID,0.473437,
2012-01-30, 00:34:04,VALID,1004.63,VALID,0,VALID,94.4303,VALID,0,VALID,23.7796,VALID,10,VALID,0.198828,
2012-01-30, 00:35:04,VALID,1004.63,VALID,0,VALID,94.3692,VALID,0,VALID,23.8185,VALID,10,VALID,0.221875,
2012-01-30, 00:36:04,VALID,1004.63,VALID,0,VALID,94.3769,VALID,0,VALID,23.7991,VALID,10,VALID,0.35625,
2012-01-30, 00:37:04,VALID,1004.61,VALID,0,VALID,94.3311,VALID,0,VALID,23.8398,VALID,10,VALID,0.295312,
2012-01-30, 00:38:04,VALID,1004.56,VALID,0,VALID,94.2701,VALID,0,VALID,23.8593,VALID,10,VALID,0.286328,
2012-01-30, 00:39:04,VALID,1004.55,VALID,0,VALID,94.1938,VALID,0,VALID,23.8185,VALID,10,VALID,0.383594,
2012-01-30, 00:40:04,VALID,1004.48,VALID,0,VALID,94.148,VALID,0,VALID,23.8593,VALID,10,VALID,0.269922,
2012-01-30, 00:41:04,VALID,1004.42,VALID,0,VALID,94.1556,VALID,0,VALID,23.8398,VALID,10,VALID,0.268359,
2012-01-30, 00:42:04,VALID,1004.44,VALID,0,VALID,94.1862,VALID,0,VALID,23.8185,VALID,10,VALID,0.226953,
2012-01-30, 00:43:04,VALID,1004.46,VALID,0,VALID,94.1785,VALID,0,VALID,23.8185,VALID,10,VALID,0.332031,
2012-01-30, 00:44:04,VALID,1004.42,VALID,0,VALID,94.1404,VALID,0,VALID,23.8398,VALID,10,VALID,0.432031,
2012-01-30, 00:45:04,VALID,1004.42,VALID,0,VALID,94.1556,VALID,0,VALID,23.838,VALID,10,VALID,0.318359,
2012-01-30, 00:46:04,VALID,1004.42,VALID,0,VALID,94.1633,VALID,0,VALID,23.838,VALID,10,VALID,0.396875,
2012-01-30, 00:47:04,VALID,1004.41,VALID,0,VALID,94.1633,VALID,0,VALID,23.8593,VALID,10,VALID,0.474219,
2012-01-30, 00:48:04,VALID,1004.4,VALID,0,VALID,94.1633,VALID,0,VALID,23.838,VALID,10,VALID,0.519141,
2012-01-30, 00:49:04,VALID,1004.4,VALID,0,VALID,94.1785,VALID,0,VALID,23.8362,VALID,10,VALID,0.502344,
2012-01-30, 00:50:04,VALID,1004.35,VALID,0,VALID,94.1709,VALID,0,VALID,23.838,VALID,10,VALID,0.521484,
2012-01-30, 00:51:04,VALID,1004.35,VALID,0,VALID,94.1862,VALID,0,VALID,23.838,VALID,10,VALID,0.518359,
2012-01-30, 00:52:04,VALID,1004.34,VALID,0,VALID,94.1556,VALID,0,VALID,23.838,VALID,7,VALID,0.529297,
2012-01-30, 00:53:04,VALID,1004.33,VALID,0,VALID,94.148,VALID,0,VALID,23.8398,VALID,6,VALID,0.658594,
2012-01-30, 00:54:04,VALID,1004.27,VALID,0,VALID,94.1251,VALID,0,VALID,23.838,VALID,6,VALID,0.614062,
2012-01-30, 00:55:04,VALID,1004.26,VALID,0,VALID,94.1251,VALID,0,VALID,23.8398,VALID,5,VALID,0.632031,
2012-01-30, 00:56:04,VALID,1004.27,VALID,0,VALID,94.1404,VALID,0,VALID,23.7991,VALID,5,VALID,0.4875,
2012-01-30, 00:57:04,VALID,1004.24,VALID,0,VALID,94.1709,VALID,0,VALID,23.7991,VALID,3,VALID,0.607813,
2012-01-30, 00:58:04,VALID,1004.26,VALID,0,VALID,94.1633,VALID,0,VALID,23.7991,VALID,3,VALID,0.671094,
2012-01-30, 00:59:04,VALID,1004.22,VALID,0,VALID,94.209,VALID,0,VALID,23.8398,VALID,360,VALID,0.702344,
2012-01-30, 01:00:04,VALID,1004.22,VALID,0,VALID,94.2396,VALID,0,VALID,23.838,VALID,359,VALID,0.523047,
2012-01-30, 01:01:04,VALID,1004.17,VALID,0,VALID,94.1556,VALID,0,VALID,23.838,VALID,359,VALID,0.615625,
2012-01-30, 01:02:04,VALID,1004.16,VALID,0,VALID,94.1251,VALID,0,VALID,23.8593,VALID,359,VALID,0.533984,
2012-01-30, 01:03:04,VALID,1004.16,VALID,0,VALID,94.1251,VALID,0,VALID,23.838,VALID,356,VALID,0.479688,
2012-01-30, 01:04:04,VALID,1004.14,VALID,0,VALID,94.0717,VALID,0,VALID,23.8593,VALID,355,VALID,0.592969,
2012-01-30, 01:05:04,VALID,1004.11,VALID,0,VALID,94.1022,VALID,0,VALID,23.8769,VALID,350,VALID,0.633203,
2012-01-30, 01:06:04,VALID,1004.11,VALID,0,VALID,94.0717,VALID,0,VALID,23.8982,VALID,350,VALID,0.554297,
2012-01-30, 01:07:04,VALID,1004.13,VALID,0,VALID,94.0107,VALID,0,VALID,23.9159,VALID,345,VALID,0.614062,
2012-01-30, 01:08:04,VALID,1004.14,VALID,0,VALID,93.8734,VALID,0,VALID,23.9371,VALID,345,VALID,0.692187,
2012-01-30, 01:09:04,VALID,1004.15,VALID,0,VALID,93.7818,VALID,0,VALID,23.9353,VALID,345,VALID,0.623828,
2012-01-30, 01:10:04,VALID,1004.15,VALID,0,VALID,93.7208,VALID,0,VALID,23.9335,VALID,345,VALID,0.746484,
2012-01-30, 01:11:04,VALID,1004.13,VALID,0,VALID,93.6216,VALID,0,VALID,23.9566,VALID,345,VALID,0.517187,
2012-01-30, 01:12:04,VALID,1004.11,VALID,0,VALID,93.6292,VALID,0,VALID,23.9548,VALID,345,VALID,0.706641,
2012-01-30, 01:13:04,VALID,1004.1,VALID,0,VALID,93.5835,VALID,0,VALID,23.9761,VALID,345,VALID,0.718359,
2012-01-30, 01:14:04,VALID,1004.08,VALID,0,VALID,93.4843,VALID,0,VALID,23.9937,VALID,345,VALID,0.803125,
2012-01-30, 01:15:04,VALID,1004.06,VALID,0,VALID,93.3012,VALID,0,VALID,24.0132,VALID,348,VALID,0.626562,
2012-01-30, 01:16:04,VALID,1004.06,VALID,0,VALID,93.0037,VALID,0,VALID,24.0539,VALID,348,VALID,0.794141,
2012-01-30, 01:17:04,VALID,1004.09,VALID,0,VALID,92.9198,VALID,0,VALID,24.0539,VALID,347,VALID,0.469531,
2012-01-30, 01:18:04,VALID,1004.07,VALID,0,VALID,92.8664,VALID,0,VALID,24.0734,VALID,347,VALID,0.571484,
2012-01-30, 01:19:04,VALID,1004.07,VALID,0,VALID,92.6909,VALID,0,VALID,24.0734,VALID,347,VALID,0.480078,
2012-01-30, 01:20:04,VALID,1004.05,VALID,0,VALID,92.7062,VALID,0,VALID,24.0521,VALID,346,VALID,0.404687,
2012-01-30, 01:21:04,VALID,1004.05,VALID,0,VALID,92.546,VALID,0,VALID,24.0716,VALID,346,VALID,0.527734,
2012-01-30, 01:22:04,VALID,1004.05,VALID,0,VALID,92.4849,VALID,0,VALID,24.0521,VALID,346,VALID,0.407031,
2012-01-30, 01:23:04,VALID,1004.06,VALID,0,VALID,92.4849,VALID,0,VALID,24.0345,VALID,346,VALID,0.554688,
2012-01-30, 01:24:04,VALID,1004.02,VALID,0,VALID,92.5307,VALID,0,VALID,24.0345,VALID,346,VALID,0.4875,
2012-01-30, 01:25:04,VALID,1003.99,VALID,0,VALID,92.5841,VALID,0,VALID,24.0132,VALID,346,VALID,0.563281,
2012-01-30, 01:26:04,VALID,1004.03,VALID,0,VALID,92.6604,VALID,0,VALID,23.9937,VALID,346,VALID,0.5625,
2012-01-30, 01:27:04,VALID,1004.01,VALID,0,VALID,92.6604,VALID,0,VALID,23.9955,VALID,346,VALID,0.651953,
2012-01-30, 01:28:04,VALID,1004.02,VALID,0,VALID,92.6833,VALID,0,VALID,23.9761,VALID,346,VALID,0.564062,
2012-01-30, 01:29:04,VALID,1003.97,VALID,0,VALID,92.7214,VALID,0,VALID,23.9159,VALID,346,VALID,0.578516,
2012-01-30, 01:30:04,VALID,1003.99,VALID,0,VALID,92.813,VALID,0,VALID,23.8964,VALID,346,VALID,0.577734,
2012-01-30, 01:31:04,VALID,1003.99,VALID,0,VALID,92.8435,VALID,0,VALID,23.8769,VALID,346,VALID,0.573828,
2012-01-30, 01:32:04,VALID,1003.97,VALID,0,VALID,92.8969,VALID,0,VALID,23.838,VALID,346,VALID,0.479688,
2012-01-30, 01:33:04,VALID,1003.96,VALID,0,VALID,93.0189,VALID,0,VALID,23.8575,VALID,346,VALID,0.533594,
2012-01-30, 01:34:04,VALID,1003.96,VALID,0,VALID,93.0266,VALID,0,VALID,23.8398,VALID,346,VALID,0.569922,
2012-01-30, 01:35:04,VALID,1003.96,VALID,0,VALID,93.1181,VALID,0,VALID,23.8203,VALID,346,VALID,0.607422,
2012-01-30, 01:36:04,VALID,1003.93,VALID,0,VALID,93.1486,VALID,0,VALID,23.8203,VALID,346,VALID,0.635938,
2012-01-30, 01:37:04,VALID,1003.96,VALID,0,VALID,93.1181,VALID,0,VALID,23.7991,VALID,346,VALID,0.619141,
2012-01-30, 01:38:04,VALID,1003.96,VALID,0,VALID,93.0723,VALID,0,VALID,23.7583,VALID,346,VALID,0.724219,
2012-01-30, 01:39:04,VALID,1003.94,VALID,0,VALID,93.1181,VALID,0,VALID,23.8009,VALID,346,VALID,0.557813,
2012-01-30, 01:40:04,VALID,1003.92,VALID,0,VALID,93.1639,VALID,0,VALID,23.7601,VALID,346,VALID,0.533594,
2012-01-30, 01:41:05,VALID,1003.92,VALID,0,VALID,93.1944,VALID,0,VALID,23.7601,VALID,346,VALID,0.578906,
2012-01-30, 01:42:05,VALID,1003.89,VALID,0,VALID,93.3012,VALID,0,VALID,23.7407,VALID,346,VALID,0.624609,
2012-01-30, 01:43:05,VALID,1003.88,VALID,0,VALID,93.3622,VALID,0,VALID,23.7619,VALID,346,VALID,0.530469,
2012-01-30, 01:44:05,VALID,1003.86,VALID,0,VALID,93.4156,VALID,0,VALID,23.7212,VALID,348,VALID,0.667578,
2012-01-30, 01:45:05,VALID,1003.85,VALID,0,VALID,93.4462,VALID,0,VALID,23.7637,VALID,354,VALID,0.810938,
2012-01-30, 01:46:05,VALID,1003.85,VALID,0,VALID,93.4309,VALID,0,VALID,23.7212,VALID,354,VALID,0.7625,
2012-01-30, 01:47:05,VALID,1003.86,VALID,0,VALID,93.3928,VALID,0,VALID,23.7017,VALID,356,VALID,0.743359,
2012-01-30, 01:48:05,VALID,1003.88,VALID,0,VALID,93.3394,VALID,0,VALID,23.6841,VALID,357,VALID,0.777734,
2012-01-30, 01:49:05,VALID,1003.86,VALID,0,VALID,93.4462,VALID,0,VALID,23.6646,VALID,357,VALID,0.683984,
2012-01-30, 01:50:05,VALID,1003.83,VALID,0,VALID,93.4996,VALID,0,VALID,23.6434,VALID,357,VALID,0.533594,
2012-01-30, 01:51:05,VALID,1003.8,VALID,0,VALID,93.5682,VALID,0,VALID,23.6239,VALID,357,VALID,0.623047,
2012-01-30, 01:52:05,VALID,1003.8,VALID,0,VALID,93.4996,VALID,0,VALID,23.6239,VALID,357,VALID,0.745703,
2012-01-30, 01:53:05,VALID,1003.76,VALID,0,VALID,93.5148,VALID,0,VALID,23.6062,VALID,357,VALID,0.691406,
2012-01-30, 01:54:05,VALID,1003.74,VALID,0,VALID,93.6369,VALID,0,VALID,23.585,VALID,357,VALID,0.739453,
2012-01-30, 01:55:05,VALID,1003.7,VALID,0,VALID,93.6903,VALID,0,VALID,23.6062,VALID,357,VALID,0.663672,
2012-01-30, 01:56:05,VALID,1003.71,VALID,0,VALID,93.7437,VALID,0,VALID,23.6062,VALID,357,VALID,0.64375,
2012-01-30, 01:57:05,VALID,1003.69,VALID,0,VALID,93.7589,VALID,0,VALID,23.5655,VALID,357,VALID,0.669531,
2012-01-30, 01:58:05,VALID,1003.68,VALID,0,VALID,93.8276,VALID,0,VALID,23.5655,VALID,357,VALID,0.539063,
2012-01-30, 01:59:05,VALID,1003.66,VALID,0,VALID,93.8505,VALID,0,VALID,23.5868,VALID,357,VALID,0.520312,
2012-01-30, 02:00:05,VALID,1003.65,VALID,0,VALID,93.9115,VALID,0,VALID,23.585,VALID,357,VALID,0.50625,
2012-01-30, 02:01:05,VALID,1003.65,VALID,0,VALID,93.8963,VALID,0,VALID,23.6062,VALID,357,VALID,0.459375,
2012-01-30, 02:02:05,VALID,1003.58,VALID,0,VALID,93.9344,VALID,0,VALID,23.6062,VALID,357,VALID,0.421875,
2012-01-30, 02:03:05,VALID,1003.61,VALID,0,VALID,93.9497,VALID,0,VALID,23.6044,VALID,357,VALID,0.470313,
2012-01-30, 02:04:05,VALID,1003.57,VALID,0,VALID,93.9268,VALID,0,VALID,23.6239,VALID,357,VALID,0.410156,
2012-01-30, 02:05:05,VALID,1003.6,VALID,0,VALID,93.8734,VALID,0,VALID,23.6044,VALID,357,VALID,0.312891,
2012-01-30, 02:06:05,VALID,1003.59,VALID,0,VALID,93.8429,VALID,0,VALID,23.6257,VALID,357,VALID,0.112891,
2012-01-30, 02:07:05,VALID,1003.59,VALID,0,VALID,93.7818,VALID,0,VALID,23.585,VALID,357,VALID,0.373437,
2012-01-30, 02:08:05,VALID,1003.6,VALID,0,VALID,93.7666,VALID,0,VALID,23.585,VALID,357,VALID,0.2375,
2012-01-30, 02:09:05,VALID,1003.6,VALID,0,VALID,93.8734,VALID,0,VALID,23.585,VALID,357,VALID,0.371484,
2012-01-30, 02:10:05,VALID,1003.57,VALID,0,VALID,93.8734,VALID,0,VALID,23.6044,VALID,357,VALID,0.540625,
2012-01-30, 02:11:05,VALID,1003.57,VALID,0,VALID,93.8047,VALID,0,VALID,23.5655,VALID,357,VALID,0.360938,
2012-01-30, 02:12:05,VALID,1003.56,VALID,0,VALID,93.8123,VALID,0,VALID,23.5655,VALID,357,VALID,0.412891,
2012-01-30, 02:13:05,VALID,1003.52,VALID,0,VALID,93.8123,VALID,0,VALID,23.5655,VALID,357,VALID,0.478906,
2012-01-30, 02:14:05,VALID,1003.54,VALID,0,VALID,93.7742,VALID,0,VALID,23.546,VALID,357,VALID,0.488281,
2012-01-30, 02:15:05,VALID,1003.52,VALID,0,VALID,93.7666,VALID,0.0815089,VALID,23.5266,VALID,357,VALID,0.558984,
2012-01-30, 02:16:05,VALID,1003.49,VALID,0,VALID,93.7361,VALID,0,VALID,23.4877,VALID,357,VALID,0.382422,
2012-01-30, 02:17:05,VALID,1003.51,VALID,0,VALID,93.7513,VALID,0,VALID,23.47,VALID,357,VALID,0.531641,
2012-01-30, 02:18:05,VALID,1003.49,VALID,0,VALID,93.9191,VALID,0,VALID,23.47,VALID,356,VALID,0.658594,
2012-01-30, 02:19:05,VALID,1003.47,VALID,0,VALID,93.9344,VALID,0,VALID,23.4487,VALID,356,VALID,0.603516,
2012-01-30, 02:20:05,VALID,1003.48,VALID,0,VALID,93.9191,VALID,0,VALID,23.408,VALID,356,VALID,0.597266,
2012-01-30, 02:21:05,VALID,1003.5,VALID,0,VALID,93.9802,VALID,0,VALID,23.4293,VALID,356,VALID,0.648828,
2012-01-30, 02:22:05,VALID,1003.48,VALID,0,VALID,94.0336,VALID,0,VALID,23.4098,VALID,356,VALID,0.665234,
2012-01-30, 02:23:05,VALID,1003.46,VALID,0,VALID,94.087,VALID,0,VALID,23.4098,VALID,356,VALID,0.582812,
2012-01-30, 02:24:05,VALID,1003.46,VALID,0,VALID,94.1022,VALID,0,VALID,23.4098,VALID,356,VALID,0.555859,
2012-01-30, 02:25:05,VALID,1003.45,VALID,0,VALID,94.0946,VALID,0,VALID,23.4098,VALID,356,VALID,0.489453,
2012-01-30, 02:26:05,VALID,1003.47,VALID,0,VALID,94.1404,VALID,0,VALID,23.4116,VALID,356,VALID,0.48125,
2012-01-30, 02:27:05,VALID,1003.44,VALID,0,VALID,94.1633,VALID,0,VALID,23.4116,VALID,356,VALID,0.510938,
2012-01-30, 02:28:05,VALID,1003.46,VALID,0,VALID,94.2167,VALID,0,VALID,23.3904,VALID,356,VALID,0.441016,
2012-01-30, 02:29:05,VALID,1003.48,VALID,0,VALID,94.2548,VALID,0,VALID,23.3904,VALID,356,VALID,0.466797,
2012-01-30, 02:30:05,VALID,1003.5,VALID,0,VALID,94.293,VALID,0,VALID,23.4098,VALID,356,VALID,0.446484,
2012-01-30, 02:31:05,VALID,1003.5,VALID,0,VALID,94.3158,VALID,0,VALID,23.4311,VALID,356,VALID,0.495703,
2012-01-30, 02:32:05,VALID,1003.53,VALID,0,VALID,94.3387,VALID,0,VALID,23.4293,VALID,356,VALID,0.56875,
2012-01-30, 02:33:05,VALID,1003.51,VALID,0,VALID,94.3387,VALID,0,VALID,23.4293,VALID,356,VALID,0.641797,
2012-01-30, 02:34:05,VALID,1003.52,VALID,0,VALID,94.2777,VALID,0,VALID,23.4487,VALID,356,VALID,0.649609,
2012-01-30, 02:35:05,VALID,1003.55,VALID,0,VALID,94.2853,VALID,0,VALID,23.4293,VALID,356,VALID,0.597656,
2012-01-30, 02:36:05,VALID,1003.52,VALID,0,VALID,94.293,VALID,0,VALID,23.4487,VALID,356,VALID,0.521875,
2012-01-30, 02:37:05,VALID,1003.55,VALID,0,VALID,94.1938,VALID,0,VALID,23.4293,VALID,356,VALID,0.681641,
2012-01-30, 02:38:05,VALID,1003.57,VALID,0,VALID,94.1328,VALID,0,VALID,23.4293,VALID,356,VALID,0.542188,
2012-01-30, 02:39:05,VALID,1003.57,VALID,0,VALID,94.1328,VALID,0,VALID,23.4098,VALID,356,VALID,0.592188,
2012-01-30, 02:40:05,VALID,1003.57,VALID,0,VALID,94.1938,VALID,0,VALID,23.4311,VALID,356,VALID,0.634766,
2012-01-30, 02:41:05,VALID,1003.57,VALID,0,VALID,94.1785,VALID,0,VALID,23.4098,VALID,356,VALID,0.638281,
2012-01-30, 02:42:05,VALID,1003.57,VALID,0,VALID,94.2014,VALID,0.0815089,VALID,23.408,VALID,356,VALID,0.622266,
2012-01-30, 02:43:05,VALID,1003.53,VALID,0,VALID,94.1785,VALID,0,VALID,23.4293,VALID,356,VALID,0.620313,
2012-01-30, 02:44:05,VALID,1003.53,VALID,0,VALID,94.1785,VALID,0,VALID,23.4098,VALID,356,VALID,0.549609,
2012-01-30, 02:45:05,VALID,1003.53,VALID,0,VALID,94.2243,VALID,0.0815089,VALID,23.4293,VALID,356,VALID,0.622656,
2012-01-30, 02:46:05,VALID,1003.54,VALID,0,VALID,94.2014,VALID,0,VALID,23.3886,VALID,356,VALID,0.673437,
2012-01-30, 02:47:05,VALID,1003.58,VALID,0,VALID,94.148,VALID,0,VALID,23.4116,VALID,356,VALID,0.634375,
2012-01-30, 02:48:05,VALID,1003.59,VALID,0,VALID,94.1556,VALID,0,VALID,23.3904,VALID,356,VALID,0.585938,
2012-01-30, 02:49:05,VALID,1003.62,VALID,0,VALID,94.1175,VALID,0,VALID,23.3709,VALID,356,VALID,0.616797,
2012-01-30, 02:50:05,VALID,1003.67,VALID,0,VALID,94.1099,VALID,0,VALID,23.3921,VALID,356,VALID,0.677734,
2012-01-30, 02:51:05,VALID,1003.65,VALID,0,VALID,94.2014,VALID,0,VALID,23.3709,VALID,356,VALID,0.385156,
2012-01-30, 02:52:05,VALID,1003.68,VALID,0,VALID,94.2548,VALID,0,VALID,23.3709,VALID,356,VALID,0.0160156,
2012-01-30, 02:53:05,VALID,1003.68,VALID,0,VALID,94.3692,VALID,0,VALID,23.4311,VALID,357,VALID,0.728125,
2012-01-30, 02:54:05,VALID,1003.66,VALID,0,VALID,94.3921,VALID,0,VALID,23.47,VALID,354,VALID,0.769531,
2012-01-30, 02:55:05,VALID,1003.67,VALID,0,VALID,94.3769,VALID,0,VALID,23.4877,VALID,355,VALID,0.362109,
2012-01-30, 02:56:05,VALID,1003.64,VALID,0,VALID,94.3158,VALID,0,VALID,23.5478,VALID,353,VALID,0.833203,
2012-01-30, 02:57:05,VALID,1003.62,VALID,0,VALID,94.2701,VALID,0,VALID,23.585,VALID,352,VALID,0.608203,
2012-01-30, 02:58:05,VALID,1003.61,VALID,0,VALID,94.0717,VALID,0,VALID,23.6257,VALID,351,VALID,0.548437,
2012-01-30, 02:59:05,VALID,1003.6,VALID,0,VALID,93.8657,VALID,0,VALID,23.6452,VALID,351,VALID,0.584766,
2012-01-30, 03:00:05,VALID,1003.62,VALID,0,VALID,93.6979,VALID,0,VALID,23.6452,VALID,351,VALID,0.683984,
2012-01-30, 03:01:05,VALID,1003.64,VALID,0,VALID,93.675,VALID,0,VALID,23.6239,VALID,350,VALID,0.662891,
2012-01-30, 03:02:05,VALID,1003.64,VALID,0,VALID,93.4996,VALID,0,VALID,23.6452,VALID,349,VALID,0.707031,
2012-01-30, 03:03:05,VALID,1003.61,VALID,0,VALID,93.3699,VALID,0,VALID,23.6044,VALID,349,VALID,0.6,
2012-01-30, 03:04:05,VALID,1003.64,VALID,0,VALID,93.3928,VALID,0,VALID,23.5673,VALID,349,VALID,0.621875,
2012-01-30, 03:05:05,VALID,1003.64,VALID,0,VALID,93.4843,VALID,0,VALID,23.5868,VALID,349,VALID,0.61875,
2012-01-30, 03:06:05,VALID,1003.61,VALID,0,VALID,93.5453,VALID,0,VALID,23.5673,VALID,349,VALID,0.509766,
2012-01-30, 03:07:05,VALID,1003.58,VALID,0,VALID,93.5835,VALID,0,VALID,23.5655,VALID,349,VALID,0.609375,
2012-01-30, 03:08:05,VALID,1003.62,VALID,0,VALID,93.6216,VALID,0,VALID,23.5655,VALID,349,VALID,0.694141,
2012-01-30, 03:09:05,VALID,1003.61,VALID,0,VALID,93.6521,VALID,0,VALID,23.5868,VALID,350,VALID,0.552344,
2012-01-30, 03:10:05,VALID,1003.6,VALID,0,VALID,93.6064,VALID,0,VALID,23.5655,VALID,350,VALID,0.54375,
2012-01-30, 03:11:05,VALID,1003.61,VALID,0,VALID,93.5758,VALID,0,VALID,23.585,VALID,350,VALID,0.723437,
2012-01-30, 03:12:05,VALID,1003.63,VALID,0,VALID,93.5301,VALID,0,VALID,23.585,VALID,350,VALID,0.619531,
2012-01-30, 03:13:05,VALID,1003.62,VALID,0,VALID,93.469,VALID,0,VALID,23.585,VALID,350,VALID,0.609766,
2012-01-30, 03:14:05,VALID,1003.62,VALID,0,VALID,93.3317,VALID,0,VALID,23.6062,VALID,350,VALID,0.685156,
2012-01-30, 03:15:05,VALID,1003.59,VALID,0,VALID,93.408,VALID,0,VALID,23.585,VALID,350,VALID,0.443359,
2012-01-30, 03:16:05,VALID,1003.58,VALID,0,VALID,93.4843,VALID,0,VALID,23.6062,VALID,350,VALID,0.503516,
2012-01-30, 03:17:05,VALID,1003.58,VALID,0,VALID,93.4919,VALID,0,VALID,23.585,VALID,350,VALID,0.409375,
2012-01-30, 03:18:05,VALID,1003.6,VALID,0,VALID,93.5148,VALID,0,VALID,23.6062,VALID,350,VALID,0.446484,
2012-01-30, 03:19:05,VALID,1003.55,VALID,0,VALID,93.469,VALID,0,VALID,23.5868,VALID,350,VALID,0.492578,
2012-01-30, 03:20:05,VALID,1003.55,VALID,0,VALID,93.3622,VALID,0,VALID,23.5673,VALID,350,VALID,0.428125,
2012-01-30, 03:21:05,VALID,1003.54,VALID,0,VALID,93.3012,VALID,0,VALID,23.5266,VALID,350,VALID,0.380859,
2012-01-30, 03:22:05,VALID,1003.54,VALID,0,VALID,93.4233,VALID,0,VALID,23.5071,VALID,350,VALID,0.447656,
2012-01-30, 03:23:05,VALID,1003.56,VALID,0,VALID,93.4996,VALID,0,VALID,23.4877,VALID,350,VALID,0.619141,
2012-01-30, 03:24:05,VALID,1003.52,VALID,0,VALID,93.6292,VALID,0,VALID,23.4877,VALID,350,VALID,0.633984,
2012-01-30, 03:25:05,VALID,1003.56,VALID,0,VALID,93.6674,VALID,0,VALID,23.5284,VALID,350,VALID,0.372656,
2012-01-30, 03:26:05,VALID,1003.54,VALID,0,VALID,93.7132,VALID,0,VALID,23.5071,VALID,350,VALID,0.415625,
2012-01-30, 03:27:05,VALID,1003.55,VALID,0,VALID,93.7132,VALID,0,VALID,23.5071,VALID,347,VALID,0.255469,
2012-01-30, 03:28:05,VALID,1003.56,VALID,0,VALID,93.7208,VALID,0,VALID,23.5284,VALID,347,VALID,0.459766,
2012-01-30, 03:29:05,VALID,1003.55,VALID,0,VALID,93.7208,VALID,0,VALID,23.5478,VALID,347,VALID,0.363281,
2012-01-30, 03:30:05,VALID,1003.54,VALID,0,VALID,93.6598,VALID,0,VALID,23.5071,VALID,347,VALID,0.05,
2012-01-30, 03:31:05,VALID,1003.58,VALID,0,VALID,93.5987,VALID,0,VALID,23.4877,VALID,347,VALID,0.255859,
2012-01-30, 03:32:05,VALID,1003.59,VALID,0,VALID,93.5758,VALID,0,VALID,23.5089,VALID,348,VALID,0.188281,
2012-01-30, 03:33:05,VALID,1003.61,VALID,0,VALID,93.6064,VALID,0,VALID,23.4682,VALID,347,VALID,0.301172,
2012-01-30, 03:34:05,VALID,1003.62,VALID,0,VALID,93.5682,VALID,0,VALID,23.4682,VALID,347,VALID,0.403906,
2012-01-30, 03:35:05,VALID,1003.61,VALID,0,VALID,93.5835,VALID,0,VALID,23.4682,VALID,348,VALID,0.421484,
2012-01-30, 03:36:05,VALID,1003.63,VALID,0,VALID,93.614,VALID,0,VALID,23.4894,VALID,347,VALID,0.521875,
2012-01-30, 03:37:05,VALID,1003.63,VALID,0,VALID,93.6369,VALID,0.0815089,VALID,23.4487,VALID,348,VALID,0.582812,
2012-01-30, 03:38:05,VALID,1003.66,VALID,0,VALID,93.6826,VALID,0,VALID,23.4487,VALID,351,VALID,0.589063,
2012-01-30, 03:39:05,VALID,1003.66,VALID,0,VALID,93.7132,VALID,0,VALID,23.4487,VALID,351,VALID,0.560156,
2012-01-30, 03:40:05,VALID,1003.64,VALID,0,VALID,93.7742,VALID,0,VALID,23.47,VALID,351,VALID,0.466406,
2012-01-30, 03:41:05,VALID,1003.67,VALID,0,VALID,93.7742,VALID,0,VALID,23.4487,VALID,351,VALID,0.496094,
2012-01-30, 03:42:05,VALID,1003.65,VALID,0,VALID,93.7437,VALID,0,VALID,23.47,VALID,351,VALID,0.542188,
2012-01-30, 03:43:05,VALID,1003.67,VALID,0,VALID,93.7742,VALID,0,VALID,23.4487,VALID,351,VALID,0.430859,
2012-01-30, 03:44:05,VALID,1003.65,VALID,0,VALID,93.7513,VALID,0,VALID,23.47,VALID,351,VALID,0.405859,
2012-01-30, 03:45:05,VALID,1003.69,VALID,0,VALID,93.7437,VALID,0,VALID,23.4487,VALID,351,VALID,0.422656,